Back to catalog

KUIPER-00252

AliveCommunicationsLEO
NORAD 67157·PAYLOAD·🇺🇸 United States

Launched Dec 15, 2025 from Cape Canaveral Space Force Station

Loading…

Next Passes (next 24 hours)

TLE

FreshSource: CelesTrak SupGP

Epoch: Sep 14, 2026, 17:01 UTC

1 67157C 25301AA  26257.70947917  .00020628  00000+0  26984-2 0  2578
2 67157  51.8996 304.7724 0000372  81.4829 253.5516 14.79939671    11

Track KUIPER-00252 in real time with AllMySat

Download on the App Store